#timestamp,LO_Frequency,Hit,StdDev 
1581430875.5,286047003.5,P
1581430895.3,286047003.6,P
1581430915.2,286047003.3,P
1581430935.9,286047004.9,Y
1581430955.7,286047002.2,P
1581430975.6,286047002.5,P
1581430995.4,286047001.9,P
1581431015.3,286047002.2,Y
1581431035.1,286047000.9,P
1581431036.0,286047000.9,N
1581431055.8,286047002.3,N
1581431075.7,286047002.7,Y
1581431095.5,286046997.3,P
1581431115.3,286047001.2,N
1581431135.2,286046998.5,N
1581431155.0,286046998.8,N
1581431155.9,286046998.8,N
1581431175.8,286046998.7,N
1581431195.6,286047000.9,N
1581431215.4,286047002.6,N
1581431235.3,286047002.2,N
1581431255.1,286047001.6,N
1581431275.9,286047001.5,N
1581431295.7,286047005.3,Y
1581431315.5,286047004.1,P
1581431335.4,286047004.4,N
1581431355.2,286047005.0,N
1581431375.0,286047005.0,N
1581431375.9,286047005.0,N
1581431395.8,286047007.6,Y
1581431415.6,286047003.6,P
1581431435.5,286047004.3,P
1581431455.3,286047003.2,P
1581431475.1,286047004.1,Y
1581431495.9,286047000.8,P
1581431515.7,286046998.2,N
1581431535.5,286046998.3,N
1581431555.4,286046999.9,N
1581431575.2,286047002.4,N
1581431595.1,286047002.5,N
1581431596.0,286047002.5,N
1581431615.8,286047004.3,N
1581431635.6,286047001.3,N
1581431655.5,286047001.3,N
1581431675.3,286047003.6,N
1581431695.1,286047003.3,N
1581431715.9,286047007.6,Y
1581431735.7,286047004.8,P
1581431755.6,286047007.3,P
1581431775.4,286047007.6,P
1581431795.2,286047006.7,N
1581431815.1,286047006.2,N
1581431816.0,286047006.2,Y
1581431835.8,286047002.2,P
1581431855.7,286047001.8,N
1581431875.5,286047004.2,N
1581431895.3,286047003.3,N
1581431915.2,286047005.8,Y
1581431935.0,286047001.6,P
1581431935.9,286047001.6,N
1581431955.8,286047004.4,P
1581431975.6,286047001.5,N
1581431995.4,286047004.2,Y
1581432015.3,286047001.6,P
1581432035.1,286047004.1,P
1581432055.8,286047005.5,P
1581432075.7,286047002.9,N
1581432095.5,286047007.1,Y
1581432115.4,286047003.9,P
1581432135.2,286047004.1,P
1581432155.0,286047003.7,P
1581432155.9,286047003.7,Y
1581432175.8,286047002.8,P
1581432195.6,286047002.0,P
1581432215.4,286047001.3,N
1581432235.3,286047003.1,Y
1581432255.1,286047001.8,P
1581432275.9,286047004.1,P
1581432295.7,286047003.2,P
1581432315.5,286047005.2,Y
1581432335.4,286047004.2,P
1581432355.2,286047003.3,P
1581432375.1,286047003.6,P
1581432376.0,286047003.6,Y
1581432395.8,286046999.8,P
1581432415.6,286046999.7,N
1581432435.5,286046999.8,N
1581432455.3,286047002.1,N
1581432475.1,286047001.5,N
1581432495.9,286047001.4,N
1581432515.7,286047005.9,Y
1581432535.6,286047002.9,P
1581432555.4,286047005.2,P
1581432575.2,286047007.5,P
1581432595.1,286047006.9,N
1581432596.0,286047006.9,N
1581432615.8,286047006.5,N
1581432635.7,286047008.3,Y
1581432655.5,286047003.3,P
1581432675.3,286047005.9,P
1581432695.2,286047005.5,P
1581432715.0,286047006.0,Y
1581432715.9,286047006.0,P
1581432735.8,286047000.6,N
1581432755.6,286046999.9,N
1581432775.4,286046999.8,N
1581432795.3,286047002.5,N
1581432815.1,286047000.3,N
1581432835.8,286046999.9,N
1581432855.7,286047001.6,N
1581432875.5,286047001.4,N
1581432895.4,286047004.4,N
1581432915.2,286047004.1,N
1581432935.0,286047003.0,N
1581432935.9,286047003.0,N
1581432955.8,286047003.1,N
1581432975.6,286047005.8,N
1581432995.4,286047005.8,N
1581433015.3,286047005.0,N
1581433035.1,286047007.5,Y
1581433055.9,286047004.7,P
1581433075.7,286047009.2,P
1581433095.5,286047010.7,P
1581433115.4,286047010.2,Y
1581433135.2,286047003.6,P
1581433155.0,286047003.3,N
1581433156.0,286047003.3,N
1581433175.8,286047003.8,N
1581433195.6,286047003.6,N
